Regional Weather Roundup
Issued by NWS Newport/Morehead, NC

Current Version | Previous Version | Text Only | Print | Product List | Glossary On
Versions: 1 2 3 4 5 6 7 8 9 10 11 12 13 14 15 16 17 18 19 20 21 22 23 24 25 26 27 28 29 30 31 32 33 34 35 36 37 38 39 40 41 42 43 44 45 46 47 48 49 50
000
ASUS42 KMHX 271813
RWRMHX
WEATHER ROUNDUP FOR EASTERN NORTH CAROLINA
NATIONAL WEATHER SERVICE NEWPORT/MOREHEAD CITY NC
200 PM EDT TUE SEP 27 2016

NOTE: "FAIR" INDICATES FEW OR NO CLOUDS BELOW 12,000 FEET
WITH NO SIGNIFICANT WEATHER AND/OR OBSTRUCTIONS TO VISIBILITY

NCZ015>017-031-032-045>047-102-103-271900-
NORTH COAST

CITY           SKY/WX    TMP DP  RH WIND       PRES   REMARKS
EDENTON        PTSUNNY   80  67  65 SW3       29.94F
ELIZABETH CITY CLOUDY    79  67  66 S5        29.93F
KITTY HAWK     CLOUDY    82  72  71 S3        29.93F
MANTEO         CLOUDY    78  67  70 S7        29.95F

$$

NCZ045>047-081-094-103-104-271900-
CENTRAL COAST

CITY           SKY/WX    TMP DP  RH WIND       PRES   REMARKS
FRISCO         CLOUDY    81  72  74 SE13G18   29.92F

$$

NCZ095-097-098-100-101-271900-
SOUTHERN COAST

CITY           SKY/WX    TMP DP  RH WIND       PRES   REMARKS
BEAUFORT       CLOUDY    81  68  64 SE8       29.91F
CEDAR ISLAND   NOT AVBL
JACKSONVILLE   LGT RAIN  73  69  87 E8        29.92F FOG
PINEY ISLAND   CLOUDY   N/A N/A N/A E8        29.92F
WILMINGTON     CLOUDY    78  68  71 E7        29.91F


$$

NCZ011>013-027>030-043-044-078>080-089-090>093-098-271900-
COASTAL PLAIN

CITY           SKY/WX    TMP DP  RH WIND       PRES   REMARKS
AHOSKIE        CLOUDY    77  70  79 S3        29.93F
CLINTON        MOSUNNY   82  69  65 CALM      29.91F
ELIZABETHTOWN  SUNNY     83  67  57 CALM      29.91F
GOLDSBORO      CLOUDY    83  71  68 SW1       29.89F
GREENVILLE     CLOUDY    81  70  69 SW3       29.94F
HAVELOCK       LGT RAIN  76  72  87 W8        29.93F
KENANSVILLE    MOSUNNY   82  66  57 NE3       29.91F
KINSTON        CLOUDY    84  66  54 CALM      29.92F
NEW BERN       CLOUDY    79  71  76 SW5       29.93F
RICHLANDS      CLOUDY    82  70  66 E7        29.92F
ROCKY MOUNT    LGT RAIN  75  72  90 N7        29.91F FOG
WASHINGTON     CLOUDY    79  67  66 CALM      29.93F
WHITEVILLE     NOT AVBL

$$

AMZ130-135-150-152-154-156-158-170-250-252-270-ANZ085-086-088-633-658-670-271900-
MARINE OBSERVATIONS

STATION/POSITION TIME  TEMP    WIND        PRES    WAVE   SWELL
                       AIR SEA DIR/SP/G            HT/PER HT/PER
                 (UTC) (F)     (DEG/KT/KT) (MB)    (FT/S) (FT/S)
CHESAPEAKE LIGHT NOT AVBL
64 E VA BEACH    1750   74 73  190/  8/ 10 1013.8    3/12   3/12
DUCK             1748   79 76  170/  6/  8 1013.0
2 E DUCK         1741      76                N/A     3/13   2/13
OREGON INLET     1748   78 76  250/  2/  4 1013.7
13E OREGON INLT  1800      76                N/A     3/13   3/13
HATTERAS CG      1748   78 77  130/  9/ 13 1012.9
DIAMOND BUOY     1750   76 84  130/ 17/ 21 1012.9    4/ 6   2/12
CAPE LOOKOUT     1800   78      70/  9/ 10 1012.7
BEAUFORT LAB     1748   79 76  110/  7/  9 1012.5
30 SE NEW RVR IN 1708   80 83  110/  8/ 12 1013.0
30 SE NEW RVR IN 1725      83                N/A     4/ 6
27 SE WRIGHTSVLE 1708   80 81   90/  6/ 10 1013.2
5 SE WRIGHTSVLE  1708   80 81   90/  4/  6 1014.4
225 S CAPE HAT   1750   80 83  180/ 10/ 12 1012.5    6/ 6   5/ 6
41 SE CHARLESTON 1750   79 82   40/  8/ 10 1012.2    3/ 8   3/ 8

$$




USA.gov is the U.S. government's official web portal to all federal, state and local government web resources and services.